Weather History for Los Alamos, NM

Change the Weather History Date:

Thursday, October 3, 2013

  Actual Average Record
Temperature  
Mean Temperature 60 °F -  
Max Temperature 69 °F 66 °F 77 °F (1979)
Min Temperature 50 °F 42 °F 30 °F (1971)
Degree Days  
Heating Degree Days 6    
Growing Degree Days 10 (Base 50)    
Moisture  
Dew Point 23 °F    
Average Humidity 24    
Maximum Humidity 39    
Minimum Humidity 12    
Precipitation  
Precipitation 0.00 in - - ()
Sea Level Pressure  
Sea Level Pressure 30.03 in    
Wind  
Wind Speed 7 mph (SSW)    
Max Wind Speed 18 mph    
Max Gust Speed 28 mph    
Visibility 10 miles    
Events      
Averages and records for this station are not official NWS values.
T = Trace of Precipitation, MM = Missing Value Source: NWS Daily Summary

Daily Weather History Graph

Daily Weather History Graph

Search for Another Location

Airport:

Trip Planner

Search our weather history database for the weather conditions in past years. The results will help you decide how hot, cold, wet, or windy it might be!

Date:

Astronomy

Oct. 03, 2013 Rise Set
Actual Time 7:01 AM MDT 6:45 PM MDT
Civil Twilight 6:36 AM MDT 7:10 PM MDT
Nautical Twilight 6:06 AM MDT 7:40 PM MDT
Astronomical Twilight 5:36 AM MDT 8:10 PM MDT
Moon 5:39 AM MDT (10/3) 5:54 PM MDT (10/3)
Length of Visible Light 12h 34m
Length of Day
11h 43m
Waning Crescent, 2% of the Moon is Illuminated
Oct 3
Waning Crescent
Oct 4
New
Oct 11
First Quarter
Oct 18
Full
Oct 26
Last Quarter

Hourly Weather History & Observations

Time (MDT) Temp. Dew Point Humidity Pressure Visibility Wind Dir Wind Speed Gust Speed Precip Events Conditions
12:15 AM 58.5 °F 19.6 °F 22% 30.11 in 10.0 mi West 9.2 mph - N/A   Clear
12:35 AM 59.2 °F 19.6 °F 22% 30.11 in 10.0 mi West 6.9 mph - N/A   Clear
12:55 AM 58.3 °F 20.1 °F 23% 30.10 in 10.0 mi West 8.1 mph - N/A   Clear
1:15 AM 60.6 °F 19.4 °F 20% 30.09 in 10.0 mi West 6.9 mph - N/A   Clear
1:35 AM 59.7 °F 19.6 °F 21% 30.09 in 10.0 mi WSW 5.8 mph - N/A   Clear
1:55 AM 60.8 °F 19.0 °F 20% 30.09 in 10.0 mi WSW 6.9 mph - N/A   Clear
2:15 AM 59.7 °F 19.8 °F 21% 30.09 in 10.0 mi WSW 6.9 mph - N/A   Clear
2:35 AM 59.4 °F 19.6 °F 21% 30.09 in 10.0 mi SSW 3.5 mph - N/A   Clear
2:55 AM 59.0 °F 20.3 °F 22% 30.08 in 10.0 mi SW 4.6 mph - N/A   Clear
3:15 AM 57.6 °F 20.7 °F 24% 30.08 in 10.0 mi SSW 5.8 mph - N/A   Clear
3:35 AM 57.0 °F 20.8 °F 25% 30.08 in 10.0 mi SW 4.6 mph - N/A   Clear
3:55 AM 58.1 °F 20.5 °F 23% 30.08 in 10.0 mi West 8.1 mph - N/A   Clear
4:15 AM 59.0 °F 19.4 °F 22% 30.07 in 10.0 mi West 9.2 mph - N/A   Clear
4:35 AM 57.2 °F 21.2 °F 25% 30.08 in 10.0 mi NW 3.5 mph - N/A   Clear
4:55 AM 56.3 °F 22.3 °F 27% 30.08 in 10.0 mi Calm Calm - N/A   Clear
5:15 AM 55.6 °F 24.6 °F 30% 30.08 in 10.0 mi Calm Calm - N/A   Clear
5:35 AM 50.9 °F 21.7 °F 32% 30.08 in 10.0 mi ENE 3.5 mph - N/A   Clear
5:55 AM 54.0 °F 26.1 °F 34% 30.08 in 10.0 mi ENE 3.5 mph - N/A   Clear
6:15 AM 51.6 °F 24.6 °F 35% 30.09 in 10.0 mi ESE 3.5 mph - N/A   Clear
6:35 AM 54.1 °F 29.1 °F 38% 30.08 in 10.0 mi Calm Calm - N/A   Clear
6:55 AM 53.6 °F 29.3 °F 39% 30.08 in 10.0 mi South 5.8 mph - N/A   Clear
7:15 AM 53.6 °F 29.3 °F 39% 30.08 in 10.0 mi Calm Calm - N/A   Clear
7:35 AM 52.2 °F 26.4 °F 37% 30.08 in 10.0 mi Calm Calm - N/A   Clear
7:55 AM 54.7 °F 28.8 °F 37% 30.09 in 10.0 mi Calm Calm - N/A   Clear
8:15 AM 55.4 °F 29.5 °F 37% 30.09 in 10.0 mi Calm Calm - N/A   Clear
8:35 AM 55.4 °F 29.5 °F 37% 30.09 in 10.0 mi Calm Calm - N/A   Clear
8:55 AM 55.8 °F 29.3 °F 36% 30.09 in 10.0 mi SE 5.8 mph - N/A   Clear
9:15 AM 56.5 °F 30.0 °F 36% 30.09 in 10.0 mi ESE 3.5 mph - N/A   Clear
9:35 AM 57.6 °F 30.2 °F 35% 30.09 in 10.0 mi ESE 3.5 mph - N/A   Clear
9:55 AM 58.6 °F 29.8 °F 34% 30.09 in 10.0 mi Calm Calm - N/A   Clear
10:15 AM 59.9 °F 29.7 °F 32% 30.09 in 10.0 mi ENE 4.6 mph - N/A   Clear
10:35 AM 60.4 °F 29.8 °F 31% 30.09 in 10.0 mi ESE 5.8 mph - N/A   Clear
10:55 AM 61.2 °F 28.2 °F 29% 30.08 in 10.0 mi SE 6.9 mph - N/A   Clear
11:15 AM 61.9 °F 29.7 °F 30% 30.07 in 10.0 mi SE 5.8 mph - N/A   Clear
11:35 AM 62.4 °F 28.2 °F 27% 30.07 in 10.0 mi ESE 8.1 mph - N/A   Clear
11:55 AM 64.0 °F 28.0 °F 26% 30.06 in 10.0 mi South 8.1 mph - N/A   Clear
12:15 PM 64.8 °F 27.5 °F 25% 30.05 in 10.0 mi ESE 6.9 mph - N/A   Clear
12:35 PM 67.3 °F 18.0 °F 15% 30.03 in 10.0 mi SW 5.8 mph - N/A   Clear
12:55 PM 67.8 °F 16.0 °F 14% 30.02 in 10.0 mi SW 11.5 mph 20.7 mph N/A   Clear
1:15 PM 68.5 °F 17.8 °F 14% 30.01 in 10.0 mi SW 9.2 mph 23.0 mph N/A   Clear
1:35 PM 68.2 °F 18.3 °F 15% 30.00 in 10.0 mi SW 16.1 mph 23.0 mph N/A   Clear
1:55 PM 69.1 °F 15.8 °F 13% 29.99 in 10.0 mi SW 16.1 mph 21.9 mph N/A   Clear
2:15 PM 69.8 °F 14.7 °F 12% 29.99 in 10.0 mi SSW 17.3 mph 24.2 mph N/A   Clear
2:35 PM 69.1 °F 14.2 °F 12% 29.98 in 10.0 mi SW 16.1 mph 27.6 mph N/A   Clear
2:55 PM 68.9 °F 18.3 °F 15% 29.98 in 10.0 mi West 16.1 mph 23.0 mph N/A   Clear
3:15 PM 69.1 °F 18.5 °F 15% 29.98 in 10.0 mi SW 18.4 mph 23.0 mph N/A   Clear
3:35 PM 68.4 °F 21.0 °F 17% 29.97 in 10.0 mi SW 5.8 mph 19.6 mph N/A   Clear
3:55 PM 69.1 °F 23.2 °F 18% 29.97 in 10.0 mi South 11.5 mph 19.6 mph N/A   Clear
4:15 PM 68.7 °F 24.8 °F 19% 29.96 in 10.0 mi South 9.2 mph 18.4 mph N/A   Clear
4:35 PM 68.2 °F 25.9 °F 20% 29.95 in 10.0 mi South 12.7 mph 20.7 mph N/A   Clear
4:55 PM 68.0 °F 24.8 °F 20% 29.95 in 10.0 mi SSW 11.5 mph 19.6 mph N/A   Clear
5:15 PM 68.2 °F 23.2 °F 18% 29.95 in 10.0 mi SSW 15.0 mph 23.0 mph N/A   Clear
5:35 PM 68.0 °F 22.8 °F 18% 29.95 in 10.0 mi South 13.8 mph 25.3 mph N/A   Clear
5:55 PM 67.6 °F 20.5 °F 17% 29.94 in 10.0 mi South 12.7 mph 19.6 mph N/A   Clear
6:15 PM 67.1 °F 19.8 °F 16% 29.93 in 10.0 mi South 8.1 mph - N/A   Clear
6:35 PM 66.2 °F 19.6 °F 17% 29.94 in 10.0 mi South 10.4 mph - N/A   Clear
6:55 PM 64.6 °F 23.5 °F 21% 29.94 in 10.0 mi South 10.4 mph - N/A   Clear
7:15 PM 63.9 °F 25.0 °F 23% 29.94 in 10.0 mi South 8.1 mph - N/A   Clear
7:35 PM 63.1 °F 24.8 °F 23% 29.95 in 10.0 mi South 9.2 mph - N/A   Clear
7:55 PM 62.6 °F 24.6 °F 24% 29.95 in 10.0 mi South 9.2 mph - N/A   Clear
8:15 PM 61.9 °F 24.4 °F 24% 29.95 in 10.0 mi South 5.8 mph - N/A   Clear
8:35 PM 61.3 °F 25.2 °F 25% 29.96 in 10.0 mi SSW 5.8 mph - N/A   Clear
8:55 PM 61.7 °F 25.7 °F 25% 29.97 in 10.0 mi SSW 4.6 mph - N/A   Clear
9:15 PM 60.8 °F 24.4 °F 25% 29.97 in 10.0 mi SW 5.8 mph - N/A   Clear
9:35 PM 60.3 °F 23.0 °F 24% 29.96 in 10.0 mi SW 6.9 mph - N/A   Clear
10:35 PM 60.8 °F 21.9 °F 22% 29.95 in 10.0 mi SW 10.4 mph 18.4 mph N/A   Clear
10:55 PM 61.2 °F 21.4 °F 22% 29.96 in 10.0 mi SW 13.8 mph 20.7 mph N/A   Clear
11:15 PM 61.0 °F 20.7 °F 21% 29.97 in 10.0 mi SW 9.2 mph 20.7 mph N/A   Clear
11:35 PM 60.8 °F 21.0 °F 22% 29.97 in 10.0 mi SW 8.1 mph - N/A   Clear
11:55 PM 60.1 °F 21.6 °F 23% 29.97 in 10.0 mi SW 3.5 mph - N/A   Clear